Dewpoint
57 57 57 58 58 58 59 59 60 60 61 61 61 62 61 60 58 52 39 46 48 57 54 35 30 30 31 30 28 23 15 15 20 17 19 21 18 23 23 23 27 29 28 30 33
56 57 57 57 58 58 59 59 59 60 61 61 61 61 60 59 50 42 53 57 56 56 35 29 27 25 25 28 28 25 18 17 21 21 20 20 18 21 20 23 26 28 29 31 32
57 57 57 57 57 58 58 59 59 60 60 61 60 60 59 57 40 36 57 56 58 52 41 34 30 25 23 25 27 22 17 16 24 28 23 20 21 22 20 20 25 25 29 31 33
57 57 57 57 57 57 58 58 59 60 60 61 60 59 59 50 28 43 57 55 57 44 36 31 26 21 22 23 27 13 20 23 29 29 25 21 23 21 21 22 28 28 30 31 32
58 58 57 57 57 57 58 58 59 59 60 60 59 59 48 35 36 46 56 53 44 37 33 30 23 22 20 24 25 22 23 25 29 27 27 28 24 23 25 29 30 30 31 31 32
55 57 57 57 57 57 58 58 58 59 59 60 59 58 44 30 45 43 45 43 39 34 31 28 26 26 23 23 22 27 27 26 27 27 27 26 25 25 26 29 29 29 30 31 32
56 55 57 57 57 57 57 58 58 58 59 59 59 53 41 34 44 39 39 37 37 35 32 32 32 27 27 26 28 27 19 22 24 27 26 25 23 23 26 28 28 28 29 29 31
56 56 56 56 57 57 57 58 58 58 59 59 60 50 35 43 45 38 37 35 34 34 34 34 33 30 28 29 25 22 22 21 23 26 26 20 18 22 27 27 27 27 27 28 29
56 56 56 56 57 57 57 58 58 58 59 59 49 45 34 46 45 43 36 33 34 34 32 32 32 28 25 22 22 24 21 21 22 26 25 21 21 26 27 26 26 26 27 27 27
57 56 56 56 57 57 57 58 57 57 54 54 47 36 35 35 41 40 38 35 33 33 28 29 29 27 25 22 19 20 21 22 22 24 24 23 22 24 27 26 26 26 26 27 27
57 57 56 56 56 57 55 51 43 41 47 27 34 27 35 37 40 39 38 34 33 30 25 29 25 24 25 22 23 22 23 22 23 24 23 23 22 23 25 26 25 25 26 26 27
58 57 57 56 57 57 53 47 43 45 40 44 44 41 36 37 34 37 36 32 31 28 29 28 25 26 27 27 24 23 22 22 24 25 24 23 23 24 25 25 25 25 25 26 27
58 58 57 56 57 56 51 50 50 47 40 36 44 43 37 35 33 35 34 32 30 29 29 27 27 30 28 28 26 25 24 24 23 25 24 23 22 23 24 26 25 26 25 26 27
57 58 57 57 54 53 51 53 52 51 24 22 37 40 35 36 34 38 35 32 30 29 29 29 30 28 29 27 27 25 27 26 25 24 22 26 20 24 25 25 25 25 25 26 27
55 57 57 56 53 49 50 52 52 46 15 23 36 40 36 32 32 35 36 31 29 29 29 27 29 29 28 28 28 26 27 26 26 25 25 25 23 23 26 25 26 27 27 26 27
54 55 57 56 55 55 55 55 50 37 20 25 38 35 34 34 32 33 32 31 31 29 28 27 29 29 29 28 28 29 28 28 29 27 23 24 23 23 24 25 27 28 28 26 27
53 53 55 56 51 56 54 48 33 29 35 30 34 35 35 33 30 31 29 28 26 25 25 27 27 28 28 26 30 28 24 22 23 23 22 26 24 23 26 28 28 28 29 27 27
53 53 54 56 56 57 52 41 28 33 33 35 36 35 34 34 32 30 29 28 29 27 25 24 23 27 28 26 27 27 25 24 18 21 22 25 25 26 29 29 30 29 30 27 26
52 50 53 54 56 56 45 33 34 33 34 34 35 34 33 34 32 28 29 28 29 28 22 25 24 29 29 29 27 26 26 28 26 16 21 26 26 28 29 27 29 29 29 26 25
45 46 48 53 56 52 43 36 35 36 34 35 32 34 32 33 30 29 28 29 29 29 29 27 25 28 27 29 29 26 28 25 27 18 18 24 25 26 27 27 27 28 29 26 25
44 42 45 53 55 47 38 39 38 38 35 32 33 34 33 33 31 30 30 30 30 30 29 29 30 27 27 27 27 27 27 28 28 27 22 19 22 28 28 27 27 27 29 27 25
44 37 45 54 42 41 39 41 40 39 38 39 37 33 34 33 32 30 30 30 32 30 28 30 32 26 26 28 28 30 28 28 26 23 26 25 24 27 27 28 29 28 28 28 25
39 37 44 50 34 35 37 40 41 39 38 37 37 37 33 32 33 33 32 33 34 30 30 31 30 24 27 30 28 27 28 28 29 28 24 23 25 26 26 27 28 28 28 28 26
38 31 37 42 42 37 34 34 39 42 41 41 38 37 36 34 36 35 35 34 35 33 38 34 34 28 25 26 28 26 27 29 28 27 26 25 25 26 25 26 27 28 29 27 26
36 34 34 33 33 35 35 38 34 35 41 42 40 40 37 37 37 35 36 34 34 37 36 34 32 31 29 30 28 28 27 28 28 28 26 26 26 27 28 26 26 28 29 27 26
33 33 36 33 35 34 35 32 32 36 38 38 39 39 39 37 36 35 38 36 35 35 34 36 33 32 31 31 30 29 29 28 28 28 28 28 28 29 29 30 28 28 29 27 26
38 39 38 32 30 30 32 35 30 32 35 38 36 39 37 39 40 39 40 40 39 37 35 35 36 34 32 32 31 31 32 29 28 28 28 27 29 31 30 29 29 29 29 29 28
Lifted_Index
8 8 8 8 8 8 7 7 7 7 6 6 6 6 6 7 8 8 8 9 9 10 10 9 9 8 8 7 7 6 5 4 4 5 6 6 7 7 7 7 7 7 7 7 7
8 8 8 8 8 8 8 7 7 7 6 6 6 7 7 7 8 8 9 9 10 10 10 9 9 8 7 7 7 6 5 4 5 6 6 7 7 7 7 7 7 7 7 8 8
8 8 8 8 8 8 8 8 7 7 7 7 7 7 7 8 7 8 9 10 10 10 10 9 9 8 7 6 6 5 5 5 6 7 7 7 7 7 7 7 7 7 7 8 8
7 8 8 8 8 8 8 8 8 7 7 7 7 7 8 8 7 8 9 10 10 10 10 9 8 7 6 6 6 5 5 6 7 8 7 7 7 7 7 7 7 7 8 8 8
7 7 8 8 8 8 8 8 8 8 7 7 7 8 8 8 7 8 8 9 10 10 9 9 8 7 6 6 6 6 6 7 7 8 8 7 7 7 7 7 8 8 8 8 8
6 7 7 7 8 8 7 7 8 8 7 7 7 8 8 8 8 8 8 9 9 9 9 9 8 8 7 7 7 7 7 7 7 7 8 7 7 7 7 8 8 8 8 8 8
6 6 6 7 7 7 7 7 8 8 7 7 7 8 8 8 8 8 8 8 8 8 8 8 8 8 7 7 7 7 6 6 6 7 7 7 6 6 7 8 8 7 7 8 8
4 5 6 6 6 7 7 7 7 7 7 7 7 8 9 9 8 8 8 8 8 8 8 8 8 8 7 7 7 6 5 5 6 7 7 6 5 6 7 7 7 7 7 7 7
2 4 5 6 6 6 7 7 7 7 7 7 8 8 9 9 8 8 8 8 8 8 8 8 8 7 7 6 5 4 4 4 5 6 7 6 5 6 7 7 7 7 7 7 7
1 1 3 4 5 6 6 7 7 7 7 7 8 9 9 9 8 8 8 8 8 8 8 8 7 6 6 5 4 4 4 4 5 6 6 6 5 6 6 6 6 6 6 6 6
-0 0 1 2 3 4 5 6 6 7 7 8 9 9 9 8 8 8 8 8 8 7 7 7 6 5 5 5 5 5 4 4 5 6 7 6 6 6 6 6 6 6 6 6 6
-0 -0 0 1 1 2 3 4 5 6 7 8 8 8 8 8 8 8 8 8 7 7 7 6 5 5 6 6 6 5 4 4 5 6 7 7 6 6 6 6 6 6 6 6 6
-0 -0 0 1 1 2 2 3 4 5 7 8 8 8 8 8 8 8 8 8 7 7 6 6 6 6 6 5 5 4 4 4 5 6 6 6 6 6 6 6 6 6 5 5 5
0 0 0 1 1 1 2 3 4 4 6 7 7 8 8 8 8 8 8 8 7 6 6 6 6 6 5 5 5 4 5 5 5 5 5 5 4 5 6 6 5 5 5 5 5
1 1 0 1 1 1 2 3 4 3 4 6 7 8 8 8 8 8 8 7 7 6 6 6 6 6 5 5 5 5 5 6 6 5 4 4 4 4 5 5 5 5 5 5 5
3 2 1 1 1 1 2 3 3 3 3 4 6 7 7 7 8 7 7 7 6 6 6 6 6 6 6 6 6 6 5 5 5 4 3 3 3 4 5 5 5 4 4 4 4
5 4 2 1 1 1 1 2 2 2 3 4 5 6 6 6 7 7 6 6 5 5 4 4 5 6 6 6 5 5 4 3 2 2 2 3 3 4 5 5 5 5 4 4 4
6 5 4 2 2 1 1 1 1 2 2 3 3 4 5 5 6 6 5 5 5 5 4 3 4 5 6 5 5 4 3 2 1 1 2 3 4 5 5 5 5 5 5 5 5
6 6 4 3 2 1 1 1 1 2 2 2 2 2 3 4 4 4 4 5 5 5 4 3 3 5 5 5 5 4 3 3 2 2 2 3 4 5 5 5 5 5 5 5 5
6 6 5 3 2 1 0 1 1 2 2 2 1 1 1 2 2 3 3 4 5 5 4 4 4 4 5 5 5 4 3 3 2 1 1 2 4 4 5 5 5 5 5 5 5
6 6 5 3 2 1 1 1 2 2 2 2 1 1 1 1 1 2 3 3 4 4 4 4 4 4 4 4 4 4 3 2 2 1 1 2 3 4 5 5 5 4 4 5 5
6 6 5 2 2 2 2 2 2 2 2 2 2 1 1 1 1 2 2 3 3 3 3 3 3 3 4 4 4 4 3 3 2 2 2 2 3 5 5 5 4 4 4 4 5
6 6 4 2 2 3 3 2 2 2 2 2 2 1 1 1 1 1 2 3 3 3 3 3 3 3 4 4 4 4 3 2 2 2 3 3 4 5 5 4 4 4 4 5 5
7 6 5 4 3 3 3 2 2 2 2 2 1 1 1 1 1 1 2 2 2 2 2 2 3 3 3 3 3 3 2 2 2 2 3 4 4 5 4 4 3 3 4 4 5
7 7 5 4 4 3 3 3 2 2 2 1 1 1 1 1 1 2 2 2 2 2 2 2 2 2 3 3 2 2 2 2 2 3 3 4 4 4 4 3 3 3 4 4 5
7 6 5 5 4 4 3 3 3 2 2 2 1 1 1 2 2 2 2 2 2 2 2 2 2 2 3 3 2 2 3 3 3 3 3 4 4 4 3 3 3 3 4 4 5
6 6 5 5 4 3 3 3 3 3 2 2 1 1 2 2 2 2 2 2 2 1 1 1 1 2 2 2 2 2 3 4 3 3 3 4 4 3 3 3 2 3 4 4 5